EXS2AL EBBR-LFPG

Flight info

Callsign EXS2AL
Flight time 0h 53m
Altitude 19000
Route CIV Y50 IDOKO/N0371F170 Y50 MATIX
Aircraft A321/M-SDE3FGHIRWY/LB1

Departure

Time 2026-05-08 19:43
Airport Brussels Airport (EBBR)

Arrival

Time 2026-05-08 20:36
Airport Charles de Gaulle International Airport (LFPG)
Time Latitude Longitude Altitude Speed Heading
2026-05-08 19:16 50.90511 4.48955 121 ft 0 kts 155°
2026-05-08 19:27 50.90523 4.48946 121 ft 4 kts 154°
2026-05-08 19:27 50.90547 4.48927 118 ft 4 kts 150°
2026-05-08 19:27 50.90569 4.48904 117 ft 4 kts 138°
2026-05-08 19:27 50.90584 4.48874 117 ft 4 kts 90°
2026-05-08 19:28 50.90583 4.48862 116 ft 0 kts 65°
2026-05-08 19:32 50.90592 4.48892 119 ft 6 kts 65°
2026-05-08 19:32 50.90618 4.48982 117 ft 12 kts 65°
2026-05-08 19:32 50.90638 4.49051 117 ft 5 kts 65°
2026-05-08 19:33 50.90641 4.49100 120 ft 4 kts 100°
2026-05-08 19:33 50.90609 4.49159 121 ft 9 kts 150°
2026-05-08 19:33 50.90559 4.49197 122 ft 7 kts 155°
2026-05-08 19:33 50.90514 4.49230 124 ft 9 kts 155°
2026-05-08 19:34 50.90432 4.49290 121 ft 9 kts 155°
2026-05-08 19:34 50.90377 4.49330 122 ft 9 kts 155°
2026-05-08 19:34 50.90324 4.49388 123 ft 11 kts 138°
2026-05-08 19:34 50.90278 4.49403 126 ft 10 kts 189°
2026-05-08 19:35 50.90184 4.49366 127 ft 11 kts 195°
2026-05-08 19:35 50.90125 4.49341 129 ft 16 kts 194°
2026-05-08 19:35 50.89985 4.49284 133 ft 22 kts 194°
2026-05-08 19:35 50.89865 4.49235 140 ft 17 kts 194°
2026-05-08 19:36 50.89751 4.49188 146 ft 16 kts 195°
2026-05-08 19:36 50.89678 4.49157 150 ft 7 kts 194°
2026-05-08 19:36 50.89609 4.49106 154 ft 16 kts 215°
2026-05-08 19:36 50.89527 4.49049 157 ft 12 kts 194°
2026-05-08 19:37 50.89444 4.49017 160 ft 11 kts 194°
2026-05-08 19:37 50.89375 4.49038 164 ft 12 kts 134°
2026-05-08 19:37 50.89310 4.49079 167 ft 8 kts 180°
2026-05-08 19:37 50.89240 4.49057 172 ft 9 kts 194°
2026-05-08 19:38 50.89172 4.49029 176 ft 8 kts 191°
2026-05-08 19:38 50.89150 4.49112 176 ft 13 kts 64°
2026-05-08 19:38 50.89160 4.49151 176 ft 0 kts 69°
2026-05-08 19:42 50.89204 4.49339 176 ft 52 kts 70°
2026-05-08 19:42 50.89412 4.50239 176 ft 118 kts 70°
2026-05-08 19:42 50.89753 4.51714 267 ft 157 kts 70°
2026-05-08 19:43 50.90120 4.53261 1025 ft 148 kts 66°
2026-05-08 19:43 50.90569 4.54725 1690 ft 147 kts 64°
2026-05-08 19:43 50.91042 4.56162 2319 ft 147 kts 63°
2026-05-08 19:43 50.91516 4.57590 2805 ft 147 kts 63°
2026-05-08 19:44 50.91995 4.59026 3304 ft 147 kts 63°
2026-05-08 19:44 50.92492 4.60520 3600 ft 163 kts 63°
2026-05-08 19:44 50.93052 4.62214 3767 ft 185 kts 63°
2026-05-08 19:44 50.93668 4.64136 3922 ft 206 kts 69°
2026-05-08 19:45 50.94098 4.66187 4034 ft 225 kts 73°
2026-05-08 19:45 50.94592 4.68702 4253 ft 250 kts 73°
2026-05-08 19:45 50.95120 4.71392 4917 ft 260 kts 73°
2026-05-08 19:45 50.95577 4.74188 5637 ft 265 kts 86°
2026-05-08 19:46 50.95339 4.77094 6348 ft 270 kts 113°
2026-05-08 19:46 50.94431 4.79340 6959 ft 273 kts 137°
2026-05-08 19:46 50.91043 4.82075 8401 ft 279 kts 160°
2026-05-08 19:47 50.89151 4.82752 9093 ft 282 kts 182°
2026-05-08 19:47 50.87737 4.82398 9603 ft 283 kts 201°
2026-05-08 19:47 50.86029 4.80710 10297 ft 285 kts 227°
2026-05-08 19:47 50.84922 4.78041 10633 ft 302 kts 245°
2026-05-08 19:48 50.84009 4.74892 10763 ft 325 kts 246°
2026-05-08 19:48 50.83200 4.72014 10868 ft 344 kts 246°
2026-05-08 19:48 50.82236 4.68565 11063 ft 360 kts 246°
2026-05-08 19:48 50.81235 4.65006 11571 ft 367 kts 245°
2026-05-08 19:49 50.80156 4.61207 12208 ft 371 kts 245°
2026-05-08 19:49 50.79090 4.57473 12837 ft 375 kts 245°
2026-05-08 19:49 50.78072 4.53926 13449 ft 378 kts 245°
2026-05-08 19:49 50.76977 4.50125 14030 ft 382 kts 245°
2026-05-08 19:50 50.75931 4.46508 14551 ft 385 kts 245°
2026-05-08 19:50 50.74813 4.42645 15111 ft 388 kts 245°
2026-05-08 19:50 50.73784 4.39096 15629 ft 390 kts 245°
2026-05-08 19:50 50.72650 4.35200 16188 ft 392 kts 245°
2026-05-08 19:51 50.71506 4.31281 16727 ft 395 kts 245°
2026-05-08 19:51 50.70576 4.28097 17152 ft 397 kts 245°
2026-05-08 19:51 50.69652 4.24937 17565 ft 399 kts 245°
2026-05-08 19:51 50.68578 4.21276 18057 ft 402 kts 245°
2026-05-08 19:52 50.67404 4.17265 18555 ft 404 kts 245°
2026-05-08 19:52 50.66222 4.13225 18960 ft 407 kts 245°
2026-05-08 19:52 50.65032 4.09160 19083 ft 411 kts 245°
2026-05-08 19:52 50.63812 4.05010 19124 ft 424 kts 245°
2026-05-08 19:53 50.62721 4.01312 18866 ft 429 kts 245°
2026-05-08 19:53 50.61498 3.97167 19177 ft 433 kts 245°
2026-05-08 19:53 50.60014 3.93052 19100 ft 432 kts 234°
2026-05-08 19:53 50.57999 3.89579 19083 ft 430 kts 220°
2026-05-08 19:54 50.55549 3.86921 19101 ft 431 kts 208°
2026-05-08 19:54 50.52745 3.85246 19106 ft 434 kts 194°
2026-05-08 19:54 50.49880 3.84694 19110 ft 436 kts 180°
2026-05-08 19:54 50.46848 3.85094 19105 ft 437 kts 174°
2026-05-08 19:55 50.44184 3.85577 19109 ft 437 kts 174°
2026-05-08 19:55 50.41164 3.86105 19101 ft 437 kts 174°
2026-05-08 19:55 50.38196 3.86611 19101 ft 418 kts 174°
2026-05-08 19:55 50.35378 3.87088 19100 ft 398 kts 174°
2026-05-08 19:56 50.32741 3.87538 19108 ft 379 kts 174°
2026-05-08 19:56 50.30144 3.87975 19105 ft 372 kts 174°
2026-05-08 19:56 50.27576 3.88402 19110 ft 370 kts 174°
2026-05-08 19:56 50.25138 3.88811 19109 ft 369 kts 174°
2026-05-08 19:57 50.22584 3.89241 19111 ft 369 kts 174°
2026-05-08 19:57 50.20029 3.89674 19111 ft 369 kts 174°
2026-05-08 19:57 50.17528 3.90525 19113 ft 370 kts 158°
2026-05-08 19:57 50.15485 3.92463 19101 ft 370 kts 138°
2026-05-08 19:58 50.13679 3.95331 19101 ft 372 kts 133°
2026-05-08 19:58 50.11942 3.98295 19111 ft 372 kts 133°
2026-05-08 19:58 50.10199 4.01263 19109 ft 372 kts 133°
2026-05-08 19:58 50.08451 4.04233 19115 ft 371 kts 133°
2026-05-08 19:59 50.06709 4.07193 19113 ft 371 kts 133°
2026-05-08 19:59 50.04962 4.10159 19116 ft 371 kts 133°
2026-05-08 19:59 50.03220 4.13111 19122 ft 371 kts 133°
2026-05-08 19:59 50.01474 4.16071 19111 ft 371 kts 133°
2026-05-08 20:00 49.99728 4.19034 19133 ft 377 kts 133°
2026-05-08 20:00 49.97901 4.22128 19120 ft 400 kts 133°
2026-05-08 20:00 49.95979 4.25388 19116 ft 419 kts 133°
2026-05-08 20:00 49.93966 4.28800 19117 ft 436 kts 133°
2026-05-08 20:01 49.91888 4.32313 19101 ft 442 kts 133°
2026-05-08 20:01 49.89841 4.35771 19117 ft 426 kts 133°
2026-05-08 20:01 49.87885 4.39067 19116 ft 406 kts 133°
2026-05-08 20:01 49.85952 4.42317 19116 ft 418 kts 133°
2026-05-08 20:02 49.83977 4.45635 19097 ft 414 kts 133°
2026-05-08 20:02 49.82065 4.48844 19099 ft 397 kts 133°
2026-05-08 20:02 49.80145 4.51800 19101 ft 381 kts 143°
2026-05-08 20:02 49.77848 4.53670 19110 ft 374 kts 164°
2026-05-08 20:03 49.75280 4.54212 19109 ft 374 kts 180°
2026-05-08 20:03 49.72677 4.54124 19104 ft 376 kts 182°
2026-05-08 20:03 49.70053 4.53978 19101 ft 378 kts 182°
2026-05-08 20:03 49.67424 4.53826 19105 ft 379 kts 183°
2026-05-08 20:04 49.64777 4.53664 19100 ft 381 kts 184°
2026-05-08 20:04 49.62209 4.52885 19037 ft 372 kts 201°
2026-05-08 20:04 49.59975 4.51027 18711 ft 362 kts 219°
2026-05-08 20:04 49.58244 4.48250 18275 ft 358 kts 236°
2026-05-08 20:05 49.57142 4.44847 17784 ft 356 kts 252°
2026-05-08 20:05 49.56575 4.41142 17509 ft 356 kts 257°
2026-05-08 20:05 49.56035 4.37433 17248 ft 355 kts 257°
2026-05-08 20:05 49.55480 4.33728 16981 ft 354 kts 256°
2026-05-08 20:06 49.54922 4.30046 16726 ft 353 kts 256°
2026-05-08 20:06 49.54364 4.26372 16467 ft 351 kts 256°
2026-05-08 20:06 49.53814 4.22723 16210 ft 350 kts 256°
2026-05-08 20:06 49.53269 4.19076 15951 ft 348 kts 256°
2026-05-08 20:07 49.52726 4.15453 15698 ft 347 kts 256°
2026-05-08 20:07 49.52184 4.11835 15446 ft 346 kts 256°
2026-05-08 20:07 49.51644 4.08226 15200 ft 344 kts 256°
2026-05-08 20:07 49.51107 4.04657 15054 ft 343 kts 256°
2026-05-08 20:08 49.50571 4.01087 15084 ft 343 kts 256°
2026-05-08 20:08 49.50026 3.97504 15087 ft 344 kts 256°
2026-05-08 20:08 49.49481 3.93931 15087 ft 344 kts 256°
2026-05-08 20:08 49.48934 3.90349 15087 ft 344 kts 256°
2026-05-08 20:09 49.48389 3.86778 15088 ft 344 kts 256°
2026-05-08 20:09 49.47842 3.83197 15087 ft 344 kts 256°
2026-05-08 20:09 49.47295 3.79626 15087 ft 344 kts 256°
2026-05-08 20:09 49.46747 3.76056 15087 ft 344 kts 256°
2026-05-08 20:10 49.46196 3.72484 15080 ft 343 kts 256°
2026-05-08 20:10 49.45646 3.68919 15084 ft 342 kts 256°
2026-05-08 20:10 49.45100 3.65370 15084 ft 342 kts 256°
2026-05-08 20:10 49.44552 3.61813 15084 ft 342 kts 256°
2026-05-08 20:11 49.44004 3.58266 15085 ft 342 kts 256°
2026-05-08 20:11 49.43447 3.54712 15088 ft 342 kts 256°
2026-05-08 20:11 49.42888 3.51166 15087 ft 342 kts 256°
2026-05-08 20:11 49.42327 3.47611 15087 ft 342 kts 256°
2026-05-08 20:12 49.41664 3.44112 15085 ft 342 kts 248°
2026-05-08 20:12 49.40760 3.40731 15084 ft 342 kts 247°
2026-05-08 20:12 49.39855 3.37361 15084 ft 342 kts 247°
2026-05-08 20:12 49.38950 3.33981 15084 ft 342 kts 247°
2026-05-08 20:13 49.38049 3.30610 15084 ft 342 kts 247°
2026-05-08 20:13 49.37144 3.27231 15084 ft 342 kts 247°
2026-05-08 20:13 49.36242 3.23863 15084 ft 342 kts 247°
2026-05-08 20:13 49.35337 3.20492 14977 ft 342 kts 247°
2026-05-08 20:14 49.34430 3.17125 14724 ft 340 kts 247°
2026-05-08 20:14 49.33538 3.13823 14484 ft 339 kts 247°
2026-05-08 20:14 49.32642 3.10501 14190 ft 337 kts 247°
2026-05-08 20:14 49.31739 3.07153 13904 ft 335 kts 247°
2026-05-08 20:15 49.30861 3.03907 13585 ft 333 kts 247°
2026-05-08 20:15 49.29963 3.00603 13258 ft 331 kts 247°
2026-05-08 20:15 49.29090 2.97396 12932 ft 329 kts 247°
2026-05-08 20:15 49.28211 2.94174 12640 ft 327 kts 247°
2026-05-08 20:16 49.27334 2.90962 12324 ft 326 kts 247°
2026-05-08 20:16 49.26453 2.87732 12007 ft 323 kts 247°
2026-05-08 20:16 49.25608 2.84633 11727 ft 316 kts 247°
2026-05-08 20:16 49.24771 2.81576 11471 ft 308 kts 247°
2026-05-08 20:17 49.23944 2.78556 11243 ft 300 kts 247°
2026-05-08 20:17 49.23159 2.75698 11088 ft 290 kts 247°
2026-05-08 20:17 49.22639 2.73804 11079 ft 283 kts 247°
2026-05-08 20:17 49.21631 2.70133 11082 ft 282 kts 247°
2026-05-08 20:18 49.21116 2.68265 11082 ft 282 kts 247°
2026-05-08 20:18 49.20354 2.65506 11089 ft 282 kts 247°
2026-05-08 20:18 49.19584 2.62728 11085 ft 285 kts 247°
2026-05-08 20:18 49.18810 2.59929 11083 ft 286 kts 247°
2026-05-08 20:19 49.18193 2.57056 11082 ft 285 kts 259°
2026-05-08 20:19 49.18034 2.54032 11084 ft 286 kts 268°
2026-05-08 20:19 49.17978 2.50999 11082 ft 286 kts 268°
2026-05-08 20:19 49.17914 2.47979 10776 ft 283 kts 268°
2026-05-08 20:20 49.17847 2.44982 10404 ft 282 kts 268°
2026-05-08 20:20 49.17797 2.41990 10031 ft 281 kts 269°
2026-05-08 20:20 49.17776 2.39024 9712 ft 277 kts 269°
2026-05-08 20:20 49.17760 2.36139 9578 ft 266 kts 269°
2026-05-08 20:21 49.17747 2.33376 9443 ft 255 kts 269°
2026-05-08 20:21 49.17736 2.30714 9258 ft 247 kts 269°
2026-05-08 20:21 49.17725 2.28108 8916 ft 245 kts 269°
2026-05-08 20:21 49.17715 2.25508 8572 ft 244 kts 269°
2026-05-08 20:22 49.17708 2.22928 8244 ft 242 kts 269°
2026-05-08 20:22 49.17708 2.20357 7896 ft 242 kts 269°
2026-05-08 20:22 49.17698 2.17791 7540 ft 242 kts 269°
2026-05-08 20:22 49.17693 2.15229 7225 ft 240 kts 269°
2026-05-08 20:23 49.17697 2.12684 6963 ft 240 kts 269°
2026-05-08 20:23 49.17699 2.10130 6714 ft 240 kts 269°
2026-05-08 20:23 49.17702 2.07586 6469 ft 240 kts 269°
2026-05-08 20:23 49.17706 2.05037 6213 ft 239 kts 269°
2026-05-08 20:24 49.17714 2.02499 6082 ft 240 kts 269°
2026-05-08 20:24 49.17717 1.99949 6081 ft 240 kts 269°
2026-05-08 20:24 49.17719 1.97400 6084 ft 240 kts 269°
2026-05-08 20:24 49.17718 1.94866 6083 ft 240 kts 268°
2026-05-08 20:25 49.17689 1.92317 6082 ft 240 kts 260°
2026-05-08 20:25 49.17055 1.90013 6082 ft 236 kts 228°
2026-05-08 20:25 49.15737 1.88596 6081 ft 234 kts 196°
2026-05-08 20:25 49.14140 1.88196 5968 ft 232 kts 184°
2026-05-08 20:26 49.12525 1.88051 5641 ft 232 kts 182°
2026-05-08 20:26 49.10928 1.87935 5382 ft 233 kts 181°
2026-05-08 20:26 49.09294 1.87803 5135 ft 232 kts 182°
2026-05-08 20:26 49.07677 1.87671 4888 ft 233 kts 182°
2026-05-08 20:27 49.06063 1.87536 4627 ft 233 kts 182°
2026-05-08 20:27 49.04464 1.87390 4365 ft 233 kts 182°
2026-05-08 20:27 49.02827 1.87231 4113 ft 232 kts 182°
2026-05-08 20:27 49.01233 1.87074 3997 ft 232 kts 179°
2026-05-08 20:28 48.99670 1.87586 4007 ft 228 kts 147°
2026-05-08 20:28 48.98580 1.89261 4008 ft 225 kts 115°
2026-05-08 20:28 48.98287 1.91558 4008 ft 224 kts 82°
2026-05-08 20:28 48.98734 1.93827 4010 ft 226 kts 65°
2026-05-08 20:29 48.99269 1.96074 4007 ft 226 kts 81°
2026-05-08 20:29 48.99441 1.98449 4010 ft 226 kts 86°
2026-05-08 20:29 48.99564 2.00838 4009 ft 226 kts 85°
2026-05-08 20:29 48.99697 2.03217 4009 ft 226 kts 85°
2026-05-08 20:30 48.99834 2.05572 4006 ft 226 kts 85°
2026-05-08 20:30 48.99975 2.07989 4005 ft 227 kts 85°
2026-05-08 20:30 49.00112 2.10346 4009 ft 226 kts 85°
2026-05-08 20:30 49.00251 2.12761 4009 ft 226 kts 85°
2026-05-08 20:31 49.00387 2.15118 4011 ft 226 kts 85°
2026-05-08 20:31 49.00523 2.17502 4010 ft 226 kts 85°
2026-05-08 20:31 49.00659 2.19887 4027 ft 226 kts 85°
2026-05-08 20:31 49.00793 2.22232 3997 ft 215 kts 85°
2026-05-08 20:32 49.00919 2.24458 3947 ft 206 kts 85°
2026-05-08 20:32 49.01038 2.26557 3732 ft 193 kts 85°
2026-05-08 20:32 49.01150 2.28543 3491 ft 185 kts 85°
2026-05-08 20:32 49.01258 2.30478 3250 ft 182 kts 85°
2026-05-08 20:33 49.01366 2.32394 3006 ft 180 kts 85°
2026-05-08 20:33 49.01467 2.34216 2784 ft 165 kts 85°
2026-05-08 20:33 49.01562 2.35912 2560 ft 157 kts 85°
2026-05-08 20:33 49.01652 2.37545 2351 ft 153 kts 84°
2026-05-08 20:34 49.01741 2.39141 2157 ft 146 kts 84°
2026-05-08 20:34 49.01824 2.40651 1956 ft 141 kts 84°
2026-05-08 20:34 49.01986 2.43584 1582 ft 137 kts 85°
2026-05-08 20:35 49.02065 2.45037 1394 ft 137 kts 85°
2026-05-08 20:35 49.02145 2.46488 1213 ft 137 kts 84°
2026-05-08 20:35 49.02225 2.47956 1018 ft 141 kts 84°
2026-05-08 20:35 49.02306 2.49436 827 ft 141 kts 84°
2026-05-08 20:36 49.02383 2.50929 635 ft 142 kts 84°
2026-05-08 20:36 49.02455 2.52423 430 ft 141 kts 83°
2026-05-08 20:36 49.02549 2.53827 358 ft 122 kts 83°
2026-05-08 20:36 49.02593 2.54670 357 ft 43 kts 87°
2026-05-08 20:37 49.02609 2.55063 361 ft 26 kts 92°
2026-05-08 20:37 49.02585 2.55233 361 ft 15 kts 109°
2026-05-08 20:37 49.02524 2.55434 360 ft 26 kts 115°
2026-05-08 20:37 49.02476 2.55604 358 ft 13 kts 105°
2026-05-08 20:38 49.02473 2.55730 355 ft 10 kts 84°
2026-05-08 20:38 49.02478 2.55808 357 ft 6 kts 84°
2026-05-08 20:38 49.02482 2.55868 355 ft 5 kts 84°
2026-05-08 20:38 49.02481 2.55921 354 ft 4 kts 108°
2026-05-08 20:39 49.02462 2.55946 357 ft 3 kts 151°
2026-05-08 20:39 49.02442 2.55952 358 ft 3 kts 172°
2026-05-08 20:39 49.02419 2.55955 356 ft 4 kts 175°
2026-05-08 20:39 49.02361 2.55963 356 ft 14 kts 175°